Time,TemperatureF,DewpointF,PressureIn,WindDirection,WindDirectionDegrees,WindSpeedMPH,WindSpeedGustMPH,Humidity,HourlyPrecipIn,Conditions,Clouds,dailyrainin,SolarRadiationWatts/m^2,SoftwareType,DateUTC
2013-06-18 00:23:00,51.0,26.0,-100.00,ENE,67,5.0,11.0,38,0.00,,,0.00,0.000000,,2013-06-18 06:23:00,
2013-06-18 00:32:00,51.0,26.0,-100.00,ENE,67,5.0,11.0,38,0.00,,,0.00,0.000000,,2013-06-18 06:32:00,
2013-06-18 00:43:00,51.0,26.0,-100.00,ENE,67,5.0,11.0,38,0.00,,,0.00,0.000000,,2013-06-18 06:43:00,
2013-06-18 00:52:00,51.0,28.0,-100.00,ENE,71,6.0,11.0,40,0.00,,,0.00,0.000000,,2013-06-18 06:52:00,
2013-06-18 01:12:00,51.0,28.0,-100.00,ENE,71,6.0,11.0,40,0.00,,,0.00,0.000000,,2013-06-18 07:12:00,
2013-06-18 01:22:00,51.0,28.0,-100.00,ENE,71,6.0,11.0,40,0.00,,,0.00,0.000000,,2013-06-18 07:22:00,
2013-06-18 01:33:00,51.0,28.0,-100.00,ENE,71,6.0,11.0,40,0.00,,,0.00,0.000000,,2013-06-18 07:33:00,
2013-06-18 01:43:00,51.0,28.0,-100.00,ENE,71,6.0,11.0,40,0.00,,,0.00,0.000000,,2013-06-18 07:43:00,
2013-06-18 01:52:00,53.0,27.0,-100.00,East,81,4.0,10.0,37,0.00,,,0.00,0.000000,,2013-06-18 07:52:00,
2013-06-18 02:23:00,53.0,27.0,-100.00,East,81,4.0,10.0,37,0.00,,,0.00,0.000000,,2013-06-18 08:23:00,
2013-06-18 02:32:00,53.0,27.0,-100.00,East,81,4.0,10.0,37,0.00,,,0.00,0.000000,,2013-06-18 08:32:00,
2013-06-18 02:43:00,53.0,27.0,-100.00,East,81,4.0,10.0,37,0.00,,,0.00,0.000000,,2013-06-18 08:43:00,
2013-06-18 02:52:00,52.0,28.0,-100.00,ENE,63,3.0,13.0,40,-99.99,,,0.00,0.000000,,2013-06-18 08:52:00,
2013-06-18 03:12:00,52.0,28.0,-100.00,ENE,63,3.0,13.0,40,-99.99,,,0.00,0.000000,,2013-06-18 09:12:00,
2013-06-18 03:22:00,52.0,28.0,-100.00,ENE,63,3.0,13.0,40,-99.99,,,0.00,0.000000,,2013-06-18 09:22:00,
2013-06-18 03:34:00,52.0,28.0,-100.00,ENE,63,3.0,13.0,40,-99.99,,,0.00,0.000000,,2013-06-18 09:34:00,
2013-06-18 03:42:00,52.0,28.0,-100.00,ENE,63,3.0,13.0,40,-99.99,,,0.00,0.000000,,2013-06-18 09:42:00,
2013-06-18 03:52:00,52.0,31.0,-100.00,ENE,62,4.0,11.0,44,0.00,,,0.00,0.000000,,2013-06-18 09:52:00,
2013-06-18 04:33:00,52.0,31.0,-100.00,ENE,62,4.0,11.0,44,0.00,,,0.00,0.000000,,2013-06-18 10:33:00,
2013-06-18 04:43:00,52.0,31.0,-100.00,ENE,62,4.0,11.0,44,0.00,,,0.00,0.000000,,2013-06-18 10:43:00,
2013-06-18 04:52:00,51.0,29.0,-100.00,ESE,113,0.0,10.0,43,-99.99,,,0.00,0.000000,,2013-06-18 10:52:00,
2013-06-18 05:22:00,51.0,29.0,-100.00,ESE,113,0.0,10.0,43,-99.99,,,0.00,0.000000,,2013-06-18 11:22:00,
2013-06-18 05:32:00,51.0,29.0,-100.00,ESE,113,0.0,10.0,43,-99.99,,,0.00,0.000000,,2013-06-18 11:32:00,
2013-06-18 05:42:00,51.0,29.0,-100.00,ESE,113,0.0,10.0,43,-99.99,,,0.00,0.000000,,2013-06-18 11:42:00,
2013-06-18 05:52:00,49.0,30.0,-100.00,SE,137,5.0,8.0,47,-99.99,,,0.00,0.000000,,2013-06-18 11:52:00,
2013-06-18 06:32:00,49.0,30.0,-100.00,SE,137,5.0,8.0,47,-99.99,,,0.00,0.000000,,2013-06-18 12:32:00,
2013-06-18 06:42:00,49.0,30.0,-100.00,SE,137,5.0,8.0,47,-99.99,,,0.00,0.000000,,2013-06-18 12:42:00,
2013-06-18 07:12:00,53.0,35.0,-100.00,ENE,75,5.0,8.0,50,-99.99,,,0.00,50.000000,,2013-06-18 13:12:00,
2013-06-18 08:11:00,62.0,38.0,-100.00,SE,142,3.0,9.0,41,-99.99,,,0.00,230.000000,,2013-06-18 14:11:00,
2013-06-18 09:52:00,70.0,43.0,-100.00,WSW,254,1.0,6.0,38,-99.99,,,0.00,591.000000,,2013-06-18 15:52:00,
2013-06-18 10:22:00,70.0,43.0,-100.00,WSW,254,1.0,6.0,38,-99.99,,,0.00,591.000000,,2013-06-18 16:22:00,
2013-06-18 10:33:00,70.0,43.0,-100.00,WSW,254,1.0,6.0,38,-99.99,,,0.00,591.000000,,2013-06-18 16:33:00,
2013-06-18 10:43:00,70.0,43.0,-100.00,WSW,254,1.0,6.0,38,-99.99,,,0.00,591.000000,,2013-06-18 16:43:00,
2013-06-18 10:52:00,73.0,40.0,-100.00,NW,305,1.0,6.0,30,0.00,,,0.00,744.000000,,2013-06-18 16:52:00,
2013-06-18 11:11:00,73.0,40.0,-100.00,NW,305,1.0,6.0,30,0.00,,,0.00,744.000000,,2013-06-18 17:11:00,
2013-06-18 11:22:00,73.0,40.0,-100.00,NW,305,1.0,6.0,30,0.00,,,0.00,744.000000,,2013-06-18 17:22:00,
2013-06-18 11:33:00,73.0,40.0,-100.00,NW,305,1.0,6.0,30,0.00,,,0.00,744.000000,,2013-06-18 17:33:00,
2013-06-18 11:43:00,73.0,40.0,-100.00,NW,305,1.0,6.0,30,0.00,,,0.00,744.000000,,2013-06-18 17:43:00,
2013-06-18 11:52:00,74.0,39.0,-100.00,West,261,4.0,9.0,28,0.00,,,0.00,821.000000,,2013-06-18 17:52:00,
2013-06-18 12:11:00,74.0,39.0,-100.00,West,261,4.0,9.0,28,0.00,,,0.00,821.000000,,2013-06-18 18:11:00,
2013-06-18 12:22:00,74.0,39.0,-100.00,West,261,4.0,9.0,28,0.00,,,0.00,821.000000,,2013-06-18 18:22:00,
2013-06-18 12:33:00,74.0,39.0,-100.00,West,261,4.0,9.0,28,0.00,,,0.00,821.000000,,2013-06-18 18:33:00,
2013-06-18 12:42:00,74.0,39.0,-100.00,West,261,4.0,9.0,28,0.00,,,0.00,821.000000,,2013-06-18 18:42:00,
2013-06-18 12:52:00,74.0,38.0,-100.00,WNW,284,5.0,15.0,27,0.00,,,0.00,506.000000,,2013-06-18 18:52:00,
2013-06-18 13:22:00,74.0,38.0,-100.00,WNW,284,5.0,15.0,27,0.00,,,0.00,506.000000,,2013-06-18 19:22:00,
2013-06-18 13:33:00,74.0,38.0,-100.00,WNW,284,5.0,15.0,27,0.00,,,0.00,506.000000,,2013-06-18 19:33:00,
2013-06-18 13:43:00,74.0,38.0,-100.00,WNW,284,5.0,15.0,27,0.00,,,0.00,506.000000,,2013-06-18 19:43:00,
2013-06-18 15:11:00,62.0,27.0,-100.00,SSW,195,5.0,18.0,26,-99.99,,,-99.99,232.000000,,2013-06-18 21:11:00,
2013-06-18 17:11:00,73.0,38.0,-100.00,ENE,73,5.0,12.0,28,0.00,,,0.02,646.000000,,2013-06-18 23:11:00,
2013-06-18 18:11:00,78.0,38.0,-100.00,ENE,77,1.0,10.0,24,0.00,,,0.02,577.000000,,2013-06-19 00:11:00,
2013-06-18 19:11:00,76.0,39.0,-100.00,SSE,163,0.0,6.0,26,-99.99,,,0.02,200.000000,,2013-06-19 01:11:00,
2013-06-18 19:22:00,76.0,39.0,-100.00,SSE,163,0.0,6.0,26,-99.99,,,0.02,200.000000,,2013-06-19 01:22:00,
2013-06-18 20:11:00,74.0,37.0,-100.00,ENE,70,1.0,5.0,26,0.00,,,0.02,211.000000,,2013-06-19 02:11:00,
2013-06-18 20:21:00,74.0,37.0,-100.00,ENE,70,1.0,5.0,26,0.00,,,0.02,211.000000,,2013-06-19 02:21:00,
2013-06-18 20:32:00,74.0,37.0,-100.00,ENE,70,1.0,5.0,26,0.00,,,0.02,211.000000,,2013-06-19 02:32:00,
2013-06-18 20:42:00,74.0,37.0,-100.00,ENE,70,1.0,5.0,26,0.00,,,0.02,211.000000,,2013-06-19 02:42:00,
2013-06-18 20:51:00,74.0,37.0,-100.00,ENE,70,1.0,5.0,26,0.00,,,0.02,211.000000,,2013-06-19 02:51:00,
2013-06-18 20:52:00,62.0,30.0,-100.00,ENE,71,3.0,13.0,30,0.00,,,0.02,74.000000,,2013-06-19 02:52:00,
2013-06-18 21:11:00,62.0,30.0,-100.00,ENE,71,3.0,13.0,30,0.00,,,0.02,74.000000,,2013-06-19 03:11:00,
2013-06-18 21:21:00,62.0,30.0,-100.00,ENE,71,3.0,13.0,30,0.00,,,0.02,74.000000,,2013-06-19 03:21:00,
2013-06-18 21:33:00,62.0,30.0,-100.00,ENE,71,3.0,13.0,30,0.00,,,0.02,74.000000,,2013-06-19 03:33:00,
2013-06-18 21:42:00,62.0,30.0,-100.00,ENE,71,3.0,13.0,30,0.00,,,0.02,74.000000,,2013-06-19 03:42:00,
2013-06-18 22:11:00,63.0,26.0,-100.00,SSE,153,12.0,42.0,24,0.00,,,0.02,1.000000,,2013-06-19 04:11:00,
2013-06-18 22:22:00,63.0,26.0,-100.00,SSE,153,12.0,42.0,24,0.00,,,0.02,1.000000,,2013-06-19 04:22:00,
2013-06-18 22:32:00,63.0,26.0,-100.00,SSE,153,12.0,42.0,24,0.00,,,0.02,1.000000,,2013-06-19 04:32:00,
2013-06-18 22:52:00,57.0,31.0,-100.00,NE,50,2.0,13.0,37,0.00,,,0.02,0.000000,,2013-06-19 04:52:00,
2013-06-18 23:11:00,57.0,31.0,-100.00,NE,50,2.0,13.0,37,0.00,,,0.02,0.000000,,2013-06-19 05:11:00,
2013-06-18 23:22:00,57.0,31.0,-100.00,NE,50,2.0,13.0,37,0.00,,,0.02,0.000000,,2013-06-19 05:22:00,
2013-06-18 23:32:00,57.0,31.0,-100.00,NE,50,2.0,13.0,37,0.00,,,0.02,0.000000,,2013-06-19 05:32:00,
2013-06-18 23:42:00,57.0,31.0,-100.00,NE,50,2.0,13.0,37,0.00,,,0.02,0.000000,,2013-06-19 05:42:00,
2013-06-18 23:52:00,56.0,29.0,-100.00,WNW,301,4.0,12.0,36,0.00,,,0.02,0.000000,,2013-06-19 05:52:00,